2023/01/29 00:00:00,129.9,-3.9
2023/01/29 00:10:00,129.7,-4.3
2023/01/29 00:20:00,129.5,-4.0
2023/01/29 00:30:00,129.5,-4.1
2023/01/29 00:40:00,129.5,-4.0
2023/01/29 00:50:00,129.4,-3.9
2023/01/29 01:00:00,129.5,-3.8
2023/01/29 01:10:00,130.0,-4.0
2023/01/29 01:20:00,130.4,-4.1
2023/01/29 01:30:00,131.0,-4.0
2023/01/29 01:40:00,131.2,-4.1
2023/01/29 01:50:00,131.2,-4.1
2023/01/29 02:00:00,131.1,-4.0
2023/01/29 02:10:00,131.0,-4.1
2023/01/29 02:20:00,131.0,-4.0
2023/01/29 02:30:00,131.0,-3.9
2023/01/29 02:40:00,130.6,-4.3
2023/01/29 02:50:00,130.7,-3.9
2023/01/29 03:00:00,130.7,-3.9
2023/01/29 03:10:00,130.6,-3.9
2023/01/29 03:20:00,130.5,-3.9
2023/01/29 03:30:00,130.3,-3.8
2023/01/29 03:40:00,130.5,-3.9
2023/01/29 03:50:00,130.2,-3.7
2023/01/29 04:00:00,130.2,-3.6
2023/01/29 04:10:00,130.5,-3.9
2023/01/29 04:20:00,130.9,-3.8
2023/01/29 04:30:00,131.5,-3.9
2023/01/29 04:40:00,131.5,-3.7
2023/01/29 04:50:00,131.0,-3.9
2023/01/29 05:00:00,130.7,-3.9
2023/01/29 05:10:00,130.3,-3.7
2023/01/29 05:20:00,130.2,-3.9
2023/01/29 05:30:00,130.1,-4.0
2023/01/29 05:40:00,130.1,-4.0
2023/01/29 05:50:00,130.0,-4.0
2023/01/29 06:00:00,130.0,-3.9
2023/01/29 06:10:00,129.8,-4.0
2023/01/29 06:20:00,129.6,-4.1
2023/01/29 06:30:00,129.5,-4.3
2023/01/29 06:40:00,129.5,-4.3
2023/01/29 06:50:00,129.4,-4.3
2023/01/29 07:00:00,129.1,-4.1
2023/01/29 07:10:00,128.9,-4.1
2023/01/29 07:20:00,128.9,-3.9
2023/01/29 07:30:00,129.0,-3.9
2023/01/29 07:40:00,128.9,-3.6
2023/01/29 07:50:00,128.8,-3.5
2023/01/29 08:00:00,129.0,-3.5
2023/01/29 08:10:00,129.0,-2.8
2023/01/29 08:20:00,128.8,-2.7
2023/01/29 08:30:00,128.6,-2.6
2023/01/29 08:40:00,128.6,-2.0
2023/01/29 08:50:00,128.6,-1.8
2023/01/29 09:00:00,128.6,-1.3
2023/01/29 09:10:00,128.5,-1.6
2023/01/29 09:20:00,128.3,-0.8
2023/01/29 09:30:00,128.1,-0.7
2023/01/29 09:40:00,128.1, 0.0
2023/01/29 09:50:00,127.1,-0.4
2023/01/29 10:00:00,126.0, 0.8
2023/01/29 10:10:00,126.0, 0.5
2023/01/29 10:20:00,125.9, 1.2
2023/01/29 10:30:00,---, 0.8
2023/01/29 10:40:00,---, 1.0
2023/01/29 10:50:00,125.2, 0.6
2023/01/29 11:00:00,125.4, 1.6
2023/01/29 11:10:00,125.4, 2.4
2023/01/29 11:20:00,125.0, 1.6
2023/01/29 11:30:00,124.5, 0.8
2023/01/29 11:40:00,124.4, 2.2
2023/01/29 11:50:00,---, 2.3
2023/01/29 12:00:00,123.9, 2.1
2023/01/29 12:10:00,123.3, 1.1
2023/01/29 12:20:00,122.8, 0.7
2023/01/29 12:30:00,122.8, 1.9
2023/01/29 12:40:00,122.5, 1.6
2023/01/29 12:50:00,122.5, 2.8
2023/01/29 13:00:00,122.1, 1.6
2023/01/29 13:10:00,121.8, 1.9
2023/01/29 13:20:00,122.0, 2.3
2023/01/29 13:30:00,121.8, 1.8
2023/01/29 13:40:00,121.7, 1.8
2023/01/29 13:50:00,121.6, 2.4
2023/01/29 14:00:00,121.5, 2.2
2023/01/29 14:10:00,121.4, 2.7
2023/01/29 14:20:00,120.9, 2.2
2023/01/29 14:30:00,---, 4.5
2023/01/29 14:40:00,---, 2.3
2023/01/29 14:50:00,120.0, 1.5
2023/01/29 15:00:00,119.5, 1.5
2023/01/29 15:10:00,---, 4.6
2023/01/29 15:20:00,11.0, 8.1
2023/01/29 15:30:00, 0.0, 4.2
2023/01/29 15:40:00, 0.0, 7.2
2023/01/29 15:50:00,116.9, 3.4
2023/01/29 16:00:00,116.7, 2.0
2023/01/29 16:10:00,116.5, 1.4
2023/01/29 16:20:00,116.3, 0.9
2023/01/29 16:30:00,116.2, 0.2
2023/01/29 16:40:00,116.2,-0.2
2023/01/29 16:50:00,115.9,-0.2
2023/01/29 17:00:00,115.6,-0.2
2023/01/29 17:10:00,115.6,-0.5
2023/01/29 17:20:00,115.5,-1.2
2023/01/29 17:30:00,115.4,-1.6
2023/01/29 17:40:00,115.3,-1.8
2023/01/29 17:50:00,115.3,-2.1
2023/01/29 18:00:00,115.3,-2.4
2023/01/29 18:10:00,115.3,-2.8
2023/01/29 18:20:00,115.2,-2.6
2023/01/29 18:30:00,115.2,-2.8
2023/01/29 18:40:00,115.2,-2.8
2023/01/29 18:50:00,115.1,-2.9
2023/01/29 19:00:00,115.1,-3.3
2023/01/29 19:10:00,115.0,-3.2
2023/01/29 19:20:00,115.0,-3.3
2023/01/29 19:30:00,115.0,-3.2
2023/01/29 19:40:00,114.9,-3.0
2023/01/29 19:50:00,114.7,-3.2
2023/01/29 20:00:00,114.6,-3.2
2023/01/29 20:10:00,114.6,-3.2
2023/01/29 20:20:00,114.6,-3.2
2023/01/29 20:30:00,114.6,-3.2
2023/01/29 20:40:00,114.6,-3.2
2023/01/29 20:50:00,114.6,-3.5
2023/01/29 21:00:00,114.6,-3.2
2023/01/29 21:10:00,114.6,-3.6
2023/01/29 21:20:00,114.5,-3.6
2023/01/29 21:30:00,114.5,-3.7
2023/01/29 21:40:00,114.4,-3.7
2023/01/29 21:50:00,114.1,-3.2
2023/01/29 22:00:00,114.1,-3.0
2023/01/29 22:10:00,114.1,-3.1
2023/01/29 22:20:00,114.0,-3.2
2023/01/29 22:30:00,113.9,-2.9
2023/01/29 22:40:00,113.8,-3.2
2023/01/29 22:50:00,113.7,-3.2
2023/01/29 23:00:00,113.7,-3.2
2023/01/29 23:10:00,113.8,-3.2
2023/01/29 23:20:00,113.8,-3.2
2023/01/29 23:30:00,113.8,-2.9
2023/01/29 23:40:00,113.7,-3.0
2023/01/29 23:50:00,113.7,-3.0
